HAZ816 VHHH-ZUUU

Flight info

Callsign HAZ816
Flight time N/A
Altitude 36100
Route BEKOL A461 SHL W22 TEPID W24 OSNOV G586 QP B330 ELKAL W179 IGNAK IGNAK2E
Aircraft B738/M-SDE2E3FGHIRWXY/LB1

Departure

Time N/A
Airport Hong Kong International Airport (VHHH)

Arrival

Time 2026-05-08 21:44
Airport Chengdu Shuangliu International Airport (ZUUU)
Time Latitude Longitude Altitude Speed Heading
2026-05-08 20:25 25.88154 109.21172 36234 ft 389 kts 284°
2026-05-08 20:25 25.88913 109.18265 36234 ft 389 kts 284°
2026-05-08 20:26 25.90431 109.12450 36233 ft 390 kts 284°
2026-05-08 20:26 25.91939 109.06658 36237 ft 389 kts 284°
2026-05-08 20:27 25.93447 109.00901 36240 ft 390 kts 284°
2026-05-08 20:27 25.94987 108.95119 36236 ft 389 kts 284°
2026-05-08 20:28 25.96521 108.89367 36240 ft 390 kts 284°
2026-05-08 20:28 25.98051 108.83608 36245 ft 389 kts 284°
2026-05-08 20:29 25.99586 108.77818 36249 ft 388 kts 284°
2026-05-08 20:29 26.01103 108.72073 36250 ft 389 kts 284°
2026-05-08 20:30 26.02636 108.66297 36250 ft 387 kts 284°
2026-05-08 20:30 26.04165 108.60549 36249 ft 388 kts 284°
2026-05-08 20:31 26.05693 108.54803 36250 ft 388 kts 284°
2026-05-08 20:31 26.07225 108.49018 36248 ft 387 kts 284°
2026-05-08 20:32 26.08742 108.43282 36252 ft 387 kts 284°
2026-05-08 20:32 26.10545 108.37624 36256 ft 389 kts 290°
2026-05-08 20:33 26.12843 108.32173 36259 ft 389 kts 292°
2026-05-08 20:33 26.15241 108.26761 36271 ft 390 kts 292°
2026-05-08 20:34 26.17639 108.21309 36281 ft 391 kts 292°
2026-05-08 20:35 26.21188 108.13136 36278 ft 389 kts 291°
2026-05-08 20:35 26.23539 108.07689 36275 ft 390 kts 291°
2026-05-08 20:36 26.25883 108.02242 36269 ft 389 kts 292°
2026-05-08 20:36 26.28214 107.96825 36264 ft 389 kts 291°
2026-05-08 20:37 26.30549 107.91385 36264 ft 388 kts 291°
2026-05-08 20:37 26.32881 107.85945 36264 ft 389 kts 291°
2026-05-08 20:38 26.35219 107.80485 36262 ft 388 kts 291°
2026-05-08 20:38 26.37543 107.75050 36265 ft 388 kts 291°
2026-05-08 20:39 26.39874 107.69592 36267 ft 388 kts 291°
2026-05-08 20:39 26.42202 107.64135 36267 ft 388 kts 291°
2026-05-08 20:40 26.44519 107.58699 36271 ft 387 kts 291°
2026-05-08 20:40 26.46835 107.53255 36278 ft 387 kts 291°
2026-05-08 20:41 26.49135 107.47836 36288 ft 388 kts 291°
2026-05-08 20:41 26.51434 107.42408 36291 ft 385 kts 291°
2026-05-08 20:42 26.53738 107.36958 36288 ft 388 kts 291°
2026-05-08 20:42 26.56031 107.31537 36288 ft 386 kts 291°
2026-05-08 20:43 26.58337 107.26090 36290 ft 385 kts 291°
2026-05-08 20:43 26.60623 107.20684 36292 ft 385 kts 291°
2026-05-08 20:44 26.62928 107.15224 36293 ft 387 kts 291°
2026-05-08 20:44 26.65219 107.09811 36294 ft 385 kts 291°
2026-05-08 20:45 26.67538 107.04360 36293 ft 386 kts 291°
2026-05-08 20:45 26.69843 106.98934 36293 ft 385 kts 291°
2026-05-08 20:46 26.72155 106.93480 36296 ft 386 kts 291°
2026-05-08 20:46 26.74445 106.88075 36305 ft 386 kts 291°
2026-05-08 20:47 26.76761 106.82625 36305 ft 388 kts 291°
2026-05-08 20:47 26.79626 106.77445 36310 ft 396 kts 304°
2026-05-08 20:48 26.83539 106.73057 36312 ft 403 kts 310°
2026-05-08 20:48 26.87824 106.68912 36311 ft 402 kts 312°
2026-05-08 20:49 26.92106 106.64823 36313 ft 404 kts 312°
2026-05-08 20:49 26.96343 106.60730 36311 ft 402 kts 311°
2026-05-08 20:50 27.00597 106.56581 36310 ft 403 kts 311°
2026-05-08 20:50 27.04820 106.52437 36305 ft 402 kts 310°
2026-05-08 20:51 27.09054 106.48274 36304 ft 403 kts 311°
2026-05-08 20:51 27.13266 106.44125 36301 ft 401 kts 311°
2026-05-08 20:52 27.17485 106.39967 36303 ft 402 kts 310°
2026-05-08 20:52 27.21697 106.35817 36304 ft 403 kts 311°
2026-05-08 20:53 27.25939 106.31688 36306 ft 402 kts 311°
2026-05-08 20:53 27.30172 106.27580 36306 ft 402 kts 311°
2026-05-08 20:54 27.34442 106.23425 36305 ft 402 kts 311°
2026-05-08 20:54 27.38664 106.19311 36302 ft 401 kts 311°
2026-05-08 20:55 27.42889 106.15183 36299 ft 401 kts 310°
2026-05-08 20:55 27.47114 106.11052 36302 ft 401 kts 310°
2026-05-08 20:56 27.51346 106.06908 36307 ft 402 kts 311°
2026-05-08 20:56 27.55587 106.02753 36296 ft 401 kts 310°
2026-05-08 20:57 27.59800 105.98621 36293 ft 402 kts 310°
2026-05-08 20:57 27.64042 105.94461 36291 ft 400 kts 310°
2026-05-08 20:58 27.68273 105.90301 36288 ft 402 kts 310°
2026-05-08 20:58 27.72056 105.85786 36281 ft 389 kts 298°
2026-05-08 20:59 27.74524 105.80460 36284 ft 379 kts 287°
2026-05-08 20:59 27.76214 105.74856 36282 ft 379 kts 284°
2026-05-08 21:00 27.77763 105.69180 36284 ft 377 kts 283°
2026-05-08 21:00 27.79315 105.63496 36280 ft 378 kts 284°
2026-05-08 21:01 27.81101 105.57906 36286 ft 381 kts 288°
2026-05-08 21:01 27.83249 105.52428 36284 ft 381 kts 289°
2026-05-08 21:02 27.85432 105.46951 36287 ft 381 kts 289°
2026-05-08 21:02 27.87574 105.41495 36297 ft 378 kts 289°
2026-05-08 21:03 27.89750 105.36070 36307 ft 381 kts 290°
2026-05-08 21:03 27.92126 105.30770 36310 ft 380 kts 291°
2026-05-08 21:04 27.94562 105.25420 36318 ft 382 kts 291°
2026-05-08 21:04 27.97014 105.20267 36315 ft 383 kts 296°
2026-05-08 21:05 28.00602 105.15674 36313 ft 402 kts 312°
2026-05-08 21:05 28.05308 105.12015 36304 ft 411 kts 318°
2026-05-08 21:06 28.10209 105.08651 36303 ft 411 kts 319°
2026-05-08 21:06 28.15125 105.05300 36298 ft 412 kts 319°
2026-05-08 21:07 28.20063 105.01897 36294 ft 410 kts 319°
2026-05-08 21:07 28.24940 104.98501 36301 ft 412 kts 318°
2026-05-08 21:08 28.29826 104.95082 36294 ft 410 kts 318°
2026-05-08 21:08 28.34701 104.91664 36286 ft 411 kts 318°
2026-05-08 21:08 28.37125 104.89962 36127 ft 407 kts 318°
2026-05-08 21:09 28.39495 104.88306 35853 ft 397 kts 318°
2026-05-08 21:09 28.41848 104.86671 35580 ft 387 kts 318°
2026-05-08 21:09 28.44118 104.85096 35305 ft 378 kts 317°
2026-05-08 21:09 28.46323 104.83564 35030 ft 369 kts 317°
2026-05-08 21:10 28.48490 104.82053 34758 ft 359 kts 317°
2026-05-08 21:10 28.50615 104.80568 34484 ft 351 kts 317°
2026-05-08 21:10 28.52655 104.79139 34210 ft 342 kts 316°
2026-05-08 21:10 28.54659 104.77734 33939 ft 334 kts 316°
2026-05-08 21:11 28.56633 104.76345 33669 ft 331 kts 316°
2026-05-08 21:11 28.58595 104.74953 33403 ft 335 kts 316°
2026-05-08 21:11 28.60588 104.73533 33142 ft 341 kts 316°
2026-05-08 21:11 28.62637 104.72084 32859 ft 341 kts 316°
2026-05-08 21:12 28.64652 104.70667 32607 ft 341 kts 316°
2026-05-08 21:12 28.66683 104.69241 32358 ft 342 kts 316°
2026-05-08 21:12 28.68725 104.67806 32104 ft 345 kts 316°
2026-05-08 21:12 28.70775 104.66365 31854 ft 345 kts 317°
2026-05-08 21:13 28.72831 104.64922 31604 ft 345 kts 317°
2026-05-08 21:13 28.74863 104.63494 31358 ft 345 kts 317°
2026-05-08 21:13 28.76928 104.62041 31110 ft 346 kts 317°
2026-05-08 21:13 28.78967 104.60604 30868 ft 348 kts 317°
2026-05-08 21:14 28.81054 104.59132 30620 ft 350 kts 317°
2026-05-08 21:14 28.83124 104.57673 30378 ft 350 kts 317°
2026-05-08 21:14 28.85206 104.56207 30133 ft 350 kts 317°
2026-05-08 21:14 28.87279 104.54740 29890 ft 351 kts 317°
2026-05-08 21:15 28.89362 104.53259 29650 ft 352 kts 317°
2026-05-08 21:15 28.91460 104.51765 29408 ft 352 kts 317°
2026-05-08 21:15 28.93530 104.50287 29168 ft 355 kts 317°
2026-05-08 21:15 28.95642 104.48779 28928 ft 356 kts 317°
2026-05-08 21:16 28.97738 104.47286 28685 ft 355 kts 317°
2026-05-08 21:16 28.99856 104.45778 28424 ft 355 kts 318°
2026-05-08 21:16 29.01955 104.44282 28181 ft 354 kts 318°
2026-05-08 21:16 29.04042 104.42795 27932 ft 354 kts 319°
2026-05-08 21:17 29.06065 104.41352 27694 ft 354 kts 319°
2026-05-08 21:17 29.08165 104.39853 27444 ft 352 kts 319°
2026-05-08 21:17 29.10254 104.38361 27194 ft 351 kts 319°
2026-05-08 21:17 29.12310 104.36891 26911 ft 348 kts 320°
2026-05-08 21:18 29.14363 104.35422 26681 ft 349 kts 320°
2026-05-08 21:18 29.16340 104.34004 26456 ft 351 kts 320°
2026-05-08 21:18 29.18257 104.32631 26231 ft 350 kts 320°
2026-05-08 21:18 29.19095 104.32032 26131 ft 349 kts 320°
2026-05-08 21:19 29.20479 104.31042 25962 ft 349 kts 320°
2026-05-08 21:19 29.22205 104.29805 25751 ft 349 kts 320°
2026-05-08 21:19 29.24251 104.28339 25424 ft 346 kts 320°
2026-05-08 21:20 29.28747 104.25076 24578 ft 328 kts 319°
2026-05-08 21:20 29.29013 104.24869 24527 ft 328 kts 319°
2026-05-08 21:21 29.29447 104.24528 24445 ft 328 kts 319°
2026-05-08 21:21 29.30705 104.23517 24193 ft 328 kts 318°
2026-05-08 21:21 29.32552 104.22007 23837 ft 328 kts 319°
2026-05-08 21:21 29.34306 104.20569 23497 ft 327 kts 319°
2026-05-08 21:22 29.35872 104.19291 23194 ft 326 kts 320°
2026-05-08 21:22 29.37392 104.18057 22900 ft 324 kts 320°
2026-05-08 21:22 29.38845 104.16882 22622 ft 323 kts 320°
2026-05-08 21:22 29.41082 104.15076 22206 ft 324 kts 320°
2026-05-08 21:23 29.42748 104.13732 21887 ft 322 kts 321°
2026-05-08 21:23 29.44606 104.12234 21535 ft 321 kts 321°
2026-05-08 21:23 29.46411 104.10781 21192 ft 320 kts 321°
2026-05-08 21:23 29.48117 104.09405 20867 ft 319 kts 321°
2026-05-08 21:24 29.51708 104.06509 20175 ft 317 kts 321°
2026-05-08 21:24 29.53502 104.05061 19824 ft 316 kts 321°
2026-05-08 21:24 29.55310 104.03602 19465 ft 314 kts 321°
2026-05-08 21:25 29.57072 104.02180 19114 ft 313 kts 321°
2026-05-08 21:25 29.58860 104.00736 18758 ft 313 kts 321°
2026-05-08 21:25 29.60637 103.99297 18402 ft 310 kts 321°
2026-05-08 21:25 29.62392 103.97875 18050 ft 309 kts 322°
2026-05-08 21:26 29.64166 103.96436 17690 ft 309 kts 322°
2026-05-08 21:26 29.65934 103.95006 17337 ft 307 kts 322°
2026-05-08 21:26 29.67681 103.93592 16990 ft 305 kts 322°
2026-05-08 21:26 29.69419 103.92186 16652 ft 304 kts 322°
2026-05-08 21:27 29.71137 103.90794 16303 ft 302 kts 323°
2026-05-08 21:27 29.72859 103.89397 15949 ft 301 kts 323°
2026-05-08 21:27 29.74566 103.88013 15596 ft 299 kts 323°
2026-05-08 21:27 29.76263 103.86635 15240 ft 297 kts 324°
2026-05-08 21:28 29.77946 103.85268 14880 ft 297 kts 324°
2026-05-08 21:28 29.79631 103.83899 14525 ft 295 kts 324°
2026-05-08 21:28 29.81290 103.82551 14177 ft 293 kts 325°
2026-05-08 21:28 29.82956 103.81197 13824 ft 290 kts 325°
2026-05-08 21:29 29.84602 103.79858 13466 ft 289 kts 325°
2026-05-08 21:29 29.86240 103.78525 13108 ft 288 kts 325°
2026-05-08 21:29 29.87876 103.77192 12744 ft 288 kts 325°
2026-05-08 21:29 29.89505 103.75865 12378 ft 285 kts 326°
2026-05-08 21:30 29.91142 103.74533 12012 ft 284 kts 326°
2026-05-08 21:30 29.92748 103.73225 11643 ft 283 kts 326°
2026-05-08 21:30 29.94349 103.71919 11287 ft 281 kts 326°
2026-05-08 21:30 29.95941 103.70622 10911 ft 280 kts 326°
2026-05-08 21:31 29.97524 103.69330 10556 ft 280 kts 326°
2026-05-08 21:31 29.99118 103.68027 10192 ft 279 kts 326°
2026-05-08 21:31 30.00721 103.66718 9819 ft 278 kts 326°
2026-05-08 21:31 30.02279 103.65445 9460 ft 276 kts 326°
2026-05-08 21:32 30.03854 103.64158 9200 ft 274 kts 326°
2026-05-08 21:32 30.05412 103.62884 8951 ft 274 kts 326°
2026-05-08 21:32 30.06983 103.61608 8692 ft 272 kts 328°
2026-05-08 21:32 30.08638 103.60588 8450 ft 270 kts 343°
2026-05-08 21:33 30.10511 103.60386 8197 ft 268 kts 11°
2026-05-08 21:33 30.12271 103.61055 7963 ft 267 kts 23°
2026-05-08 21:33 30.13974 103.61910 7708 ft 266 kts 23°
2026-05-08 21:33 30.15695 103.62745 7461 ft 265 kts 22°
2026-05-08 21:34 30.17402 103.63546 7213 ft 266 kts 22°
2026-05-08 21:34 30.19092 103.64329 6977 ft 266 kts 21°
2026-05-08 21:34 30.20733 103.65086 6736 ft 265 kts 21°
2026-05-08 21:34 30.22472 103.65891 6487 ft 263 kts 21°
2026-05-08 21:35 30.24163 103.66675 6241 ft 263 kts 21°
2026-05-08 21:35 30.25875 103.67489 6039 ft 264 kts 25°
2026-05-08 21:35 30.27406 103.68607 6028 ft 266 kts 44°
2026-05-08 21:35 30.28357 103.70436 5924 ft 261 kts 74°
2026-05-08 21:36 30.28596 103.72474 5682 ft 254 kts 85°
2026-05-08 21:36 30.28778 103.74486 5437 ft 247 kts 81°
2026-05-08 21:36 30.29125 103.76421 5187 ft 241 kts 73°
2026-05-08 21:36 30.29665 103.78221 5000 ft 232 kts 65°
2026-05-08 21:37 30.30381 103.79830 5000 ft 215 kts 57°
2026-05-08 21:37 30.31202 103.81187 5001 ft 198 kts 51°
2026-05-08 21:37 30.32122 103.82335 4963 ft 191 kts 39°
2026-05-08 21:37 30.33228 103.83187 4941 ft 190 kts 27°
2026-05-08 21:38 30.34413 103.83839 4918 ft 183 kts 22°
2026-05-08 21:38 30.35542 103.84385 4849 ft 169 kts 21°
2026-05-08 21:38 30.36616 103.84886 4661 ft 162 kts 21°
2026-05-08 21:38 30.37671 103.85375 4432 ft 161 kts 21°
2026-05-08 21:39 30.38691 103.85848 4347 ft 156 kts 21°
2026-05-08 21:39 30.39712 103.86319 4364 ft 160 kts 21°
2026-05-08 21:39 30.40739 103.86793 4373 ft 159 kts 21°
2026-05-08 21:39 30.41775 103.87271 4360 ft 156 kts 21°
2026-05-08 21:40 30.42792 103.87740 4374 ft 158 kts 21°
2026-05-08 21:40 30.43834 103.88221 4270 ft 160 kts 21°
2026-05-08 21:40 30.44853 103.88692 4031 ft 156 kts 21°
2026-05-08 21:41 30.46882 103.89629 3617 ft 155 kts 21°
2026-05-08 21:41 30.47893 103.90096 3410 ft 156 kts 21°
2026-05-08 21:41 30.48903 103.90564 3197 ft 154 kts 21°
2026-05-08 21:41 30.49893 103.91021 2996 ft 155 kts 21°
2026-05-08 21:42 30.50795 103.91437 2807 ft 155 kts 21°
2026-05-08 21:42 30.51807 103.91906 2599 ft 155 kts 21°
2026-05-08 21:42 30.52820 103.92374 2393 ft 156 kts 21°
2026-05-08 21:42 30.53834 103.92844 2188 ft 157 kts 21°
2026-05-08 21:43 30.54850 103.93310 1943 ft 157 kts 21°
2026-05-08 21:43 30.55861 103.93773 1748 ft 152 kts 22°
2026-05-08 21:43 30.56801 103.94210 1636 ft 141 kts 22°
2026-05-08 21:43 30.57493 103.94532 1636 ft 72 kts 22°
2026-05-08 21:44 30.57853 103.94702 1636 ft 40 kts 22°
2026-05-08 21:44 30.58037 103.94796 1636 ft 21 kts 29°
2026-05-08 21:44 30.58154 103.94894 1636 ft 20 kts 47°
2026-05-08 21:44 30.58231 103.95010 1636 ft 13 kts 55°
2026-05-08 21:45 30.58209 103.95105 1636 ft 12 kts 120°
2026-05-08 21:45 30.58177 103.95186 1636 ft 10 kts 112°
2026-05-08 21:45 30.58151 103.95261 1636 ft 9 kts 111°
2026-05-08 21:45 30.58134 103.95312 1636 ft 4 kts 111°
2026-05-08 21:46 30.58118 103.95337 1636 ft 3 kts 149°
2026-05-08 21:46 30.58094 103.95338 1636 ft 3 kts 195°
2026-05-08 21:46 30.58072 103.95329 1636 ft 3 kts 202°
2026-05-08 21:46 30.58058 103.95322 1636 ft 1 kts 203°
2026-05-08 21:47 30.58051 103.95319 1636 ft 0 kts 203°
2026-05-08 21:47 30.58049 103.95318 1636 ft 0 kts 204°